Location: Muenchen
(48.1800°N, 11.5800°E)
Time: 12:16:39
(UTC+01:00)

ISS - All Passes

Search period start: 16 December 2017 00:00
Search period end: 26 December 2017 00:00
Orbit: 402 x 406 km, 51.6° (Epoch: 16 December)

Date Brightness Start Highest point End Pass type
(mag) Time Alt. Az. Time Alt. Az. Time Alt. Az.
16 Dec - 10:39:26 10° SSE 10:41:09 13° SE 10:42:51 10° ESE daylight
16 Dec - 12:13:52 10° WSW 12:17:08 68° SSE 12:20:25 10° ENE daylight
16 Dec - 13:50:32 10° W 13:53:45 46° N 13:56:57 10° ENE daylight
16 Dec - 15:27:19 10° WNW 15:30:34 54° NNE 15:33:48 10° E daylight
16 Dec - 17:03:53 10° WNW 17:07:02 44° SSW 17:10:11 10° SE visible
17 Dec - 11:21:49 10° SW 11:24:57 42° SSE 11:28:06 10° ENE daylight
17 Dec - 12:58:09 10° W 13:01:25 55° NNW 13:04:40 10° ENE daylight
17 Dec - 14:35:01 10° WNW 14:38:14 46° N 14:41:25 10° E daylight
17 Dec - 16:11:34 10° WNW 16:14:51 71° SSW 16:18:07 10° ESE daylight
17 Dec - 17:49:03 10° WSW 17:50:51 14° SW 17:52:38 10° S visible
18 Dec - 10:30:01 10° SSW 10:32:50 26° SE 10:35:38 10° E daylight
18 Dec - 12:05:48 10° WSW 12:09:05 72° NNW 12:12:24 10° ENE daylight
18 Dec - 13:42:40 10° WNW 13:45:51 43° N 13:49:02 10° ENE daylight
18 Dec - 15:19:17 10° WNW 15:22:35 79° NNE 15:25:53 10° ESE daylight
18 Dec - 16:56:08 10° W 16:58:49 23° SW 17:01:28 10° SSE visible
19 Dec - 09:38:37 10° S 09:40:45 16° SE 09:42:53 10° E daylight
19 Dec - 11:13:31 10° WSW 11:16:48 80° SSE 11:20:07 10° ENE daylight
19 Dec - 12:50:17 10° W 12:53:28 45° N 12:56:40 10° ENE daylight
19 Dec - 14:27:00 10° WNW 14:30:16 59° NNE 14:33:32 10° E daylight
19 Dec - 16:03:36 10° WNW 16:06:41 37° SSW 16:09:44 10° SE daylight
20 Dec - 10:21:22 10° SW 10:24:34 50° SSE 10:27:47 10° ENE daylight
20 Dec - 11:57:52 10° W 12:01:05 51° N 12:04:19 10° ENE daylight
20 Dec - 13:34:41 10° WNW 13:37:55 48° N 13:41:07 10° E daylight
20 Dec - 15:11:13 10° WNW 15:14:28 60° SSW 15:17:43 10° SE daylight
20 Dec - 16:49:12 10° WSW 16:50:23 12° SW 16:51:35 10° SSW daylight
21 Dec - 09:29:26 10° SSW 09:32:23 31° SE 09:35:20 10° E daylight
21 Dec - 11:05:26 10° W 11:08:43 65° NNW 11:12:00 10° ENE daylight
21 Dec - 12:42:19 10° WNW 12:45:30 44° N 12:48:40 10° ENE daylight
21 Dec - 14:18:53 10° WNW 14:22:12 89° NNE 14:25:30 10° ESE daylight
21 Dec - 15:55:54 10° W 15:58:20 19° SW 16:00:47 10° S daylight
22 Dec - 08:37:49 10° S 08:40:15 19° SE 08:42:40 10° E daylight
22 Dec - 10:13:05 10° WSW 10:16:23 90° N 10:19:41 10° ENE daylight
22 Dec - 11:49:54 10° WNW 11:53:04 44° N 11:56:15 10° ENE daylight
22 Dec - 13:26:34 10° WNW 13:29:52 65° NNE 13:33:08 10° E daylight
22 Dec - 15:03:14 10° W 15:06:12 31° SW 15:09:09 10° SSE daylight
23 Dec - 07:47:00 10° SSE 07:48:10 11° SE 07:49:20 10° ESE daylight
23 Dec - 09:20:50 10° SW 09:24:04 60° SSE 09:27:20 10° ENE daylight
23 Dec - 10:57:26 10° W 11:00:39 48° N 11:03:51 10° ENE daylight
23 Dec - 12:34:14 10° WNW 12:37:28 51° N 12:40:41 10° E daylight
23 Dec - 14:10:46 10° WNW 14:13:59 51° SSW 14:17:10 10° SE daylight
24 Dec - 08:28:46 10° SW 08:31:50 37° SE 08:34:54 10° ENE daylight
24 Dec - 10:04:58 10° W 10:08:14 59° NNW 10:11:30 10° ENE daylight
24 Dec - 11:41:50 10° WNW 11:45:02 44° N 11:48:13 10° E daylight
24 Dec - 13:18:23 10° WNW 13:21:41 80° SSW 13:24:58 10° ESE daylight
24 Dec - 14:55:36 10° W 14:57:45 16° SW 14:59:53 10° S daylight
25 Dec - 07:36:59 10° SSW 07:39:38 23° SE 07:42:18 10° E daylight
25 Dec - 09:12:33 10° WSW 09:15:51 80° NNW 09:19:08 10° ENE daylight
25 Dec - 10:49:24 10° WNW 10:52:34 43° N 10:55:45 10° ENE daylight
25 Dec - 12:26:01 10° WNW 12:29:19 72° NNE 12:32:36 10° ESE daylight
25 Dec - 14:02:46 10° W 14:05:36 26° SW 14:08:24 10° SSE daylight
